Location: Cambroso
(45.2833°N, 12.0850°E)
Time: 09:42:15
(UTC+00:00)

Cosmos 1553 Rocket - Pass Details

Date: 21 January 2021
Orbit: 941 x 1008 km, 82.9° (Epoch: 28 February)

Event Time Altitude Azimuth Distance (km) Brightness Sun altitude
Rises 18:08:32 0° 355° (N) 3,751 7.1 -21.7°
Reaches altitude 10° 18:11:11 10° 1° (N) 2,795 6.3 -22.2°
Maximum altitude 18:17:25 50° 76° (ENE) 1,268 4.1 -23.3°
Enters shadow 18:18:15 47° 100° (E) 1,310 4.2 -23.4°
